Location: Lower Kingswood
(51.2667°N, 0.2167°W)
Time: 11:29:57
(UTC+00:00)

COSMOS 2428 - Pass Details

Date: 26 September 2023
Orbit: 843 x 858 km, 70.9° (Epoch: 28 November)

Event Time Altitude Azimuth Distance (km) Brightness Sun altitude
Rises 04:18:04 0° 330° (NNW) 3,416 5.7 -15.4°
Reaches altitude 10° 04:20:33 10° 334° (NNW) 2,479 5.0 -15.0°
Maximum altitude 04:26:12 64° 56° (NE) 939 3.2 -14.2°
Drops below altitude 10° 04:31:51 10° 138° (SE) 2,474 5.5 -13.3°
Sets 04:34:19 0° 141° (SE) 3,408 6.2 -13.0°
